When you browse on this site, cookies collect data to enhance your experience and personalize the content and advertising you see.
Visit our Privacy Policy to learn more. By continuing to use the site, you agree to this use of cookies and data.
  • în România
  • Lista ţărilor
  • Pe 7 zile
  • Temperatura apei
  • Meteo pe hartă
  • Widget-uri
  • user-avatar
    Intrare

    Meteo pe oră la Maidstone

    Astăzi, 5 Iunie, Vineri

    Timp Temperatura Precipitaţii Vânt Presiune Umiditate
    00:00 +8°C° 0.1 mm 4 m/s 747 mmHg 91%
    01:00 +8°C° 0 mm 4 m/s 746 mmHg 92%
    02:00 +8°C° 0 mm 4 m/s 745 mmHg 93%
    03:00 +8°C° 0 mm 4 m/s 744 mmHg 94%
    04:00 +8°C° 0.1 mm 5 m/s 744 mmHg 92%
    05:00 +9°C° 0.1 mm 5 m/s 744 mmHg 90%
    06:00 +9°C° 0.1 mm 5 m/s 743 mmHg 88%
    07:00 +10°C° 0 mm 6 m/s 743 mmHg 79%
    08:00 +11°C° 0 mm 7 m/s 743 mmHg 69%
    09:00 +12°C° 0 mm 8 m/s 743 mmHg 60%
    10:00 +11°C° 0.2 mm 8 m/s 744 mmHg 64%
    11:00 +11°C° 0.2 mm 7 m/s 744 mmHg 68%
    12:00 +11°C° 0.2 mm 6 m/s 744 mmHg 72%
    13:00 +13°C° 0.4 mm 6 m/s 745 mmHg 66%
    14:00 +12°C° 0.4 mm 7 m/s 745 mmHg 60%
    15:00 +14°C° 0.4 mm 7 m/s 745 mmHg 54%
    16:00 +14°C° 0.2 mm 7 m/s 745 mmHg 56%
    17:00 +14°C° 0.2 mm 7 m/s 745 mmHg 58%
    18:00 +13°C° 0.2 mm 6 m/s 745 mmHg 60%
    19:00 +11°C° 0 mm 6 m/s 745 mmHg 63%
    20:00 +10°C° 0 mm 6 m/s 746 mmHg 67%
    21:00 +8°C° 0 mm 5 m/s 746 mmHg 71%
    22:00 +8°C° 0 mm 5 m/s 746 mmHg 73%
    23:00 +7°C° 0 mm 5 m/s 746 mmHg 74%

    Mâine, 6 Iunie, Sâmbătă

    Timp Temperatura Precipitaţii Vânt Presiune Umiditate
    00:00 +6°C° 0 mm 5 m/s 746 mmHg 76%
    01:00 +6°C° 0 mm 5 m/s 746 mmHg 77%
    02:00 +5°C° 0 mm 5 m/s 746 mmHg 78%
    03:00 +3°C° 0 mm 5 m/s 746 mmHg 80%
    04:00 +4°C° 0 mm 6 m/s 746 mmHg 75%
    05:00 +5°C° 0 mm 7 m/s 746 mmHg 71%
    06:00 +6°C° 0 mm 9 m/s 746 mmHg 67%
    07:00 +7°C° 0 mm 9 m/s 746 mmHg 64%
    08:00 +8°C° 0 mm 10 m/s 746 mmHg 61%
    09:00 +11°C° 0 mm 10 m/s 746 mmHg 59%
    10:00 +9°C° 0.2 mm 10 m/s 746 mmHg 65%
    11:00 +10°C° 0.2 mm 9 m/s 746 mmHg 71%
    12:00 +10°C° 0.2 mm 9 m/s 746 mmHg 77%
    13:00 +10°C° 0.2 mm 9 m/s 746 mmHg 77%
    14:00 +11°C° 0.2 mm 9 m/s 746 mmHg 77%
    15:00 +12°C° 0.2 mm 9 m/s 746 mmHg 77%
    16:00 +12°C° 0.5 mm 8 m/s 746 mmHg 77%
    17:00 +13°C° 0.5 mm 6 m/s 746 mmHg 78%
    18:00 +13°C° 0.5 mm 5 m/s 747 mmHg 79%
    19:00 +12°C° 0.1 mm 5 m/s 747 mmHg 81%
    20:00 +11°C° 0.1 mm 4 m/s 748 mmHg 83%
    21:00 +10°C° 0.1 mm 3 m/s 749 mmHg 86%
    22:00 +9°C° 0 mm 3 m/s 749 mmHg 87%
    23:00 +9°C° 0 mm 3 m/s 749 mmHg 88%

    Poimâine, 7 Iunie, Duminică

    Timp Temperatura Precipitaţii Vânt Presiune Umiditate
    00:00 +8°C° 0 mm 3 m/s 749 mmHg 89%
    01:00 +8°C° 0 mm 3 m/s 750 mmHg 90%
    02:00 +8°C° 0 mm 3 m/s 750 mmHg 91%
    03:00 +8°C° 0 mm 3 m/s 750 mmHg 93%
    04:00 +8°C° 0 mm 3 m/s 751 mmHg 92%
    05:00 +9°C° 0 mm 3 m/s 751 mmHg 91%
    06:00 +10°C° 0 mm 3 m/s 751 mmHg 90%
    07:00 +11°C° 0 mm 3 m/s 751 mmHg 83%
    08:00 +14°C° 0 mm 2 m/s 752 mmHg 76%
    09:00 +16°C° 0 mm 2 m/s 752 mmHg 70%
    10:00 +16°C° 0.1 mm 2 m/s 753 mmHg 67%
    11:00 +17°C° 0.1 mm 2 m/s 753 mmHg 64%
    12:00 +18°C° 0.1 mm 2 m/s 753 mmHg 61%
    13:00 +18°C° 0.5 mm 3 m/s 753 mmHg 63%
    14:00 +18°C° 0.5 mm 3 m/s 753 mmHg 64%
    15:00 +18°C° 0.5 mm 4 m/s 753 mmHg 66%
    16:00 +18°C° 0.4 mm 3 m/s 753 mmHg 68%
    17:00 +17°C° 0.4 mm 3 m/s 753 mmHg 71%
    18:00 +17°C° 0.4 mm 3 m/s 754 mmHg 73%
    19:00 +14°C° 0.4 mm 3 m/s 754 mmHg 79%
    20:00 +13°C° 0.4 mm 3 m/s 755 mmHg 85%
    21:00 +11°C° 0.4 mm 3 m/s 756 mmHg 91%
    22:00 +11°C° 0 mm 3 m/s 756 mmHg 92%
    23:00 +11°C° 0 mm 3 m/s 756 mmHg 94%

    8 Iunie, Luni

    Timp Temperatura Precipitaţii Vânt Presiune Umiditate
    00:00 +10°C° 0 mm 3 m/s 756 mmHg 95%
    01:00 +11°C° 0 mm 4 m/s 756 mmHg 94%
    02:00 +11°C° 0 mm 4 m/s 757 mmHg 93%
    03:00 +10°C° 0 mm 5 m/s 757 mmHg 92%
    04:00 +10°C° 0 mm 5 m/s 757 mmHg 91%
    05:00 +10°C° 0 mm 5 m/s 757 mmHg 89%
    06:00 +10°C° 0 mm 5 m/s 758 mmHg 87%
    07:00 +12°C° 0 mm 5 m/s 758 mmHg 82%
    08:00 +13°C° 0 mm 5 m/s 759 mmHg 77%
    09:00 +14°C° 0 mm 6 m/s 759 mmHg 72%
    10:00 +14°C° 0 mm 6 m/s 759 mmHg 70%
    11:00 +14°C° 0 mm 5 m/s 759 mmHg 68%
    12:00 +15°C° 0 mm 5 m/s 760 mmHg 66%
    13:00 +15°C° 0.1 mm 6 m/s 760 mmHg 66%
    14:00 +15°C° 0.1 mm 6 m/s 760 mmHg 67%
    15:00 +14°C° 0.1 mm 6 m/s 760 mmHg 67%
    16:00 +14°C° 0 mm 6 m/s 760 mmHg 67%
    17:00 +14°C° 0 mm 6 m/s 760 mmHg 67%
    18:00 +14°C° 0 mm 5 m/s 761 mmHg 66%
    19:00 +13°C° 0 mm 5 m/s 761 mmHg 72%
    20:00 +10°C° 0 mm 5 m/s 762 mmHg 78%
    21:00 +10°C° 0 mm 4 m/s 762 mmHg 84%
    22:00 +8°C° 0 mm 4 m/s 762 mmHg 84%
    23:00 +7°C° 0 mm 4 m/s 762 mmHg 85%

    9 Iunie, Marţi

    Timp Temperatura Precipitaţii Vânt Presiune Umiditate
    00:00 +8°C° 0 mm 3 m/s 763 mmHg 85%
    01:00 +7°C° 0 mm 3 m/s 763 mmHg 87%
    02:00 +7°C° 0 mm 3 m/s 763 mmHg 89%
    03:00 +7°C° 0 mm 3 m/s 763 mmHg 91%
    04:00 +7°C° 0 mm 4 m/s 763 mmHg 86%
    05:00 +8°C° 0 mm 4 m/s 763 mmHg 81%
    06:00 +9°C° 0 mm 5 m/s 763 mmHg 76%
    07:00 +10°C° 0 mm 5 m/s 763 mmHg 70%
    08:00 +12°C° 0 mm 5 m/s 764 mmHg 65%
    09:00 +13°C° 0 mm 5 m/s 764 mmHg 60%
    10:00 +14°C° 0 mm 5 m/s 764 mmHg 60%
    11:00 +15°C° 0 mm 4 m/s 764 mmHg 60%
    12:00 +17°C° 0 mm 4 m/s 764 mmHg 59%
    13:00 +15°C° 0.1 mm 5 m/s 764 mmHg 65%
    14:00 +15°C° 0.1 mm 5 m/s 764 mmHg 71%
    15:00 +14°C° 0.1 mm 6 m/s 764 mmHg 77%
    16:00 +14°C° 0.1 mm 5 m/s 764 mmHg 79%
    17:00 +14°C° 0.1 mm 5 m/s 764 mmHg 80%
    18:00 +14°C° 0.1 mm 5 m/s 764 mmHg 81%
    19:00 +13°C° 0 mm 5 m/s 765 mmHg 84%
    20:00 +12°C° 0 mm 5 m/s 765 mmHg 86%
    21:00 +10°C° 0 mm 5 m/s 765 mmHg 89%
    22:00 +9°C° 0 mm 5 m/s 766 mmHg 89%
    23:00 +9°C° 0 mm 5 m/s 766 mmHg 89%

    10 Iunie, Miercuri

    Timp Temperatura Precipitaţii Vânt Presiune Umiditate
    00:00 +8°C° 0 mm 5 m/s 766 mmHg 89%
    01:00 +8°C° 0 mm 5 m/s 766 mmHg 89%
    02:00 +8°C° 0 mm 5 m/s 766 mmHg 89%
    03:00 +8°C° 0 mm 5 m/s 766 mmHg 88%
    04:00 +8°C° 0 mm 5 m/s 766 mmHg 86%
    05:00 +9°C° 0 mm 5 m/s 766 mmHg 84%
    06:00 +10°C° 0 mm 6 m/s 766 mmHg 82%
    07:00 +11°C° 0 mm 6 m/s 766 mmHg 77%
    08:00 +13°C° 0 mm 6 m/s 766 mmHg 73%
    09:00 +13°C° 0 mm 6 m/s 766 mmHg 69%
    10:00 +14°C° 0 mm 5 m/s 766 mmHg 67%
    11:00 +15°C° 0 mm 5 m/s 766 mmHg 66%
    12:00 +16°C° 0 mm 5 m/s 766 mmHg 64%
    13:00 +16°C° 0 mm 5 m/s 766 mmHg 65%
    14:00 +16°C° 0 mm 5 m/s 766 mmHg 66%
    15:00 +15°C° 0 mm 5 m/s 766 mmHg 66%
    16:00 +15°C° 0 mm 5 m/s 766 mmHg 69%
    17:00 +14°C° 0 mm 5 m/s 766 mmHg 72%
    18:00 +13°C° 0 mm 5 m/s 766 mmHg 74%
    19:00 +12°C° 0 mm 4 m/s 766 mmHg 76%
    20:00 +12°C° 0 mm 4 m/s 766 mmHg 78%
    21:00 +11°C° 0 mm 4 m/s 767 mmHg 79%
    22:00 +10°C° 0 mm 3 m/s 766 mmHg 83%
    23:00 +10°C° 0 mm 3 m/s 766 mmHg 86%
    Arată mai mult